Theta_e
285 285 285 284 284 283 283 281 280 279 279 278 278 278 278 277 277 278 278 277 278 279
285 285 284 283 283 282 281 280 279 279 277 277 277 277 277 276 276 277 278 278 278 278
285 285 284 282 281 280 279 279 278 277 276 276 276 276 276 276 276 276 276 277 277 277
284 283 282 282 280 279 278 277 277 276 276 276 275 275 274 274 274 274 274 275 275 274
282 281 281 280 278 277 277 276 276 276 275 275 274 274 274 273 273 273 272 273 272 272
281 280 279 278 277 277 276 275 275 275 274 273 273 273 273 272 272 272 272 271 271 271
281 280 278 277 276 276 275 274 274 273 272 272 272 272 272 272 271 271 271 271 271 272
280 279 276 276 276 275 274 273 273 272 272 271 271 271 271 272 271 271 271 272 273 273
278 276 275 275 274 273 273 272 272 271 271 270 271 275 276 273 272 273 272 272 273 273
276 275 275 275 274 273 272 272 272 271 271 271 271 276 277 277 275 274 273 272 272 272
276 275 274 273 273 272 271 270 270 270 270 271 271 276 277 277 275 273 273 273 273 272
276 274 273 272 271 271 270 270 270 271 270 270 270 276 276 275 273 273 273 273 274 274
275 274 272 272 271 271 270 270 270 270 269 269 267 273 274 275 273 270 272 273 274 275
274 273 273 271 271 269 270 270 270 269 269 268 268 269 275 276 274 272 271 273 271 273
Wind_Speed
16 12 10 13 10 11 11 9 9 8 8 8 7 6 6 3 3 3 3 5 4 4
14 16 14 13 11 9 9 8 10 10 9 7 7 7 6 4 4 3 3 4 4 4
16 16 12 11 13 11 9 9 11 10 9 7 7 7 6 4 4 4 4 4 5 4
15 14 12 13 11 12 11 11 11 11 10 9 7 7 6 5 4 4 3 4 4 5
11 12 13 12 11 11 12 10 12 11 11 10 9 8 6 6 4 4 4 5 5 5
14 14 14 13 12 12 12 10 10 10 10 9 8 7 6 6 6 5 5 5 6 6
16 16 14 13 14 13 13 13 10 8 7 8 8 8 6 6 6 5 5 6 6 7
15 15 14 15 14 13 12 10 10 10 9 8 7 6 7 7 7 6 6 7 7 8
16 15 17 16 15 15 14 12 11 10 10 10 6 13 14 10 8 7 7 6 7 9
16 16 17 15 15 15 14 13 11 10 10 9 9 15 14 14 7 7 7 7 9 9
17 17 15 15 16 15 14 14 13 12 11 10 9 14 14 13 7 7 8 8 10 11
18 18 17 17 16 13 13 12 11 11 10 10 8 18 15 12 6 8 8 8 9 11
17 18 19 18 17 14 13 11 8 9 8 10 8 14 15 13 6 5 6 7 9 9
14 14 13 13 12 13 13 12 11 11 10 9 9 10 15 15 6 5 4 4 4 5
Wind_Direction
190 192 195 189 179 186 185 182 167 167 162 161 161 147 139 138 159 189 208 239 235 252
193 196 195 189 182 183 172 163 162 159 154 155 152 146 144 161 171 203 208 228 233 235
195 198 192 180 183 173 165 150 153 153 150 155 160 146 147 164 170 198 199 223 222 228
196 189 178 185 185 169 155 157 157 157 158 162 161 147 154 169 176 212 223 227 237 264
182 176 179 182 170 156 160 161 162 162 162 166 164 158 156 162 185 198 224 253 266 271
182 179 184 174 162 161 154 160 161 162 166 166 155 146 150 164 183 205 226 247 261 276
186 183 178 165 160 161 162 163 166 162 153 154 152 148 169 185 194 212 231 242 250 260
181 173 165 164 163 161 159 163 162 151 151 151 151 166 177 186 198 209 234 247 252 260
170 166 172 167 166 163 162 159 159 165 159 164 178 190 190 181 196 218 234 255 265 265
167 173 177 167 167 167 164 156 166 164 165 173 181 191 194 205 202 221 237 252 269 273
170 174 170 168 171 166 165 164 170 170 172 172 180 188 199 206 210 228 243 255 263 266
173 171 170 174 173 168 163 165 170 166 167 169 170 187 190 197 209 229 248 256 262 266
174 172 176 173 169 166 159 161 162 157 164 171 168 186 197 199 194 209 235 252 264 270
174 172 171 163 165 158 152 154 159 158 166 173 166 197 194 205 199 196 216 243 273 281